Zurück zum Katalog

QIANFAN-138

AktivKommunikationPO
NORAD 69084·PAYLOAD·🇨🇳 China

Gestartet May 12, 2026 von Taiyuan Satellite Launch Center

Loading…

Nächste Überflüge (nächste 24 Stunden)

TLE

AktuellSource: Space-Track

Epoche: Sep 14, 2026, 12:12 UTC

1 69084U 26104M   26257.50846617  .00000120  00000-0  16717-3 0  9997
2 69084  88.9905 332.3769 0002492 109.2666 250.8755 13.51021112 17207

Verfolge QIANFAN-138 in Echtzeit mit AllMySat

Download on the App Store